Regional Weather Roundup
Issued by NWS Sterling, VA

Home | Current Version | Previous Version | Graphics & Text | Print | Product List | Glossary On
Versions: 1 2 3 4 5 6 7 8 9 10 11 12 13 14 15 16 17 18 19 20 21 22 23 24 25 26 27 28 29 30 31 32 33 34 35 36 37 38 39 40 41 42 43 44 45 46 47 48 49 50
000
ASUS41 KLWX 300110
RWRLWX

REGIONAL WEATHER ROUNDUP
NATIONAL WEATHER SERVICE BALTIMORE MD/WASHINGTON DC
900 PM EDT FRI MAY 29 2015

Note: "FAIR" indicates few or no clouds below 12,000 feet
with no significant weather and/or obstructions to visibility.
 TC=TEMPERATURE CELSIUS

 * =Non NWS site. Station does not report precipitation (e.g. rain,
    snow, etc.), thunder, or fog.

DCZ001-MDZ009-015-VAZ040>042-051-053>054-300200-
WASHINGTON METRO

CITY           SKY/WX    TMP DP  RH WIND       PRES   REMARKS
WASHINGTON NAT CLOUDY    80  69  69 S8        30.20R
DULLES         MOCLDY    74  64  71 S7        30.19R
ANDREWS AFB    PTCLDY    74  68  83 SE6       30.19R
QUANTICO       MOCLDY    74  69  85 CALM      30.19R
COLLEGE PARK*  PTCLDY    77  68  73 CALM      30.19S
LEESBURG*      MOCLDY    79  64  61 S10G21    30.20R
MANASSAS*      CLEAR     72  66  83 CALM      30.19R
GAITHERSBURG*  CLOUDY    75  66  73 SE6       30.24R

$$

MDZ006>007-011-014-300200-
BALTIMORE METRO

CITY           SKY/WX    TMP DP  RH WIND       PRES   REMARKS
BWI AIRPORT    MOCLDY    75  66  73 SE5       30.19R
MD SCIENCE CTR   N/A     78  66  66 MISG      30.20R
MARTIN STATE   PTCLDY    77  72  83 SE7       30.21
ANNAPOLIS      PTCLDY    75  63  66 S12       30.19S
FORT MEADE*    PTCLDY    73  63  68 SE6       30.21S

$$

MDZ012-015-019>023-300200-
MARYLAND EASTERN SHORE

CITY           SKY/WX    TMP DP  RH WIND       PRES   REMARKS
OCEAN CITY     CLEAR     68  64  87 S5        30.24R
SALISBURY      CLEAR     68  64  87 SE5       30.22S
BAY BRIDGE AP*   N/A    N/A N/A N/A S3        30.20R
CAMBRIDGE*     PTCLDY    73  64  73 SE6       30.21R

$$

MDZ017>025-300200-
SOUTHERN MARYLAND

CITY           SKY/WX    TMP DP  RH WIND       PRES   REMARKS
PATUXENT RIVER MOCLDY    74  65  73 SE12G17   30.20S
ST INIGOES       N/A     74  66  76 SE8       30.20R
LEONARDTOWN*   PTCLDY    72  63  73 SE3       30.22R

$$

MDZ003>005-300200-
NORTH CENTRAL MARYLAND

CITY           SKY/WX    TMP DP  RH WIND       PRES   REMARKS
FREDERICK*     CLOUDY    77  70  78 SE6       30.20S
HAGERSTOWN APT CLOUDY    81  66  60 S9        30.17S
WESTMINSTER*   CLOUDY    77  68  73 SE8       30.21R

$$

MDZ501>502-300200-
WESTERN MARYLAND

CITY           SKY/WX    TMP DP  RH WIND       PRES   REMARKS
OAKLAND*       MOCLDY    63 N/A N/A SE8       30.26S
CUMBERLAND*    MOCLDY    70  68  94 CALM      30.22S

$$

VAZ025>031-300200-
SHENANDOAH VALLEY

CITY           SKY/WX    TMP DP  RH WIND       PRES   REMARKS
WINCHESTER*    MOCLDY    72  68  88 CALM      30.19S
FRONT ROYAL*   FAIR      70  66  88 CALM      30.18S
LURAY*         FAIR      72  72 100 CALM      30.19S
NEW MARKET*    FAIR      68  67  98 CALM      30.18S
STAUNTON*      PTCLDY    73  68  83 SW3       30.23S
WAYNESBORO*    MOCLDY    70  67  91 S3        30.23R

$$

WVZ021-048>050-054>055-300200-
EASTERN WEST VIRGINIA PANHANDLE

CITY           SKY/WX    TMP DP  RH WIND       PRES   REMARKS
MARTINSBURG    MOCLDY    76  67  73 SW3       30.18S
PETERSBURG*    MOCLDY    71  67  87 CALM      30.20R

$$

VAZ036>039-050-300200-
CENTRAL FOOTHILLS

CITY           SKY/WX    TMP DP  RH WIND       PRES   REMARKS
CHARLOTTESVILL PTCLDY    73  66  78 CALM      30.19F
CULPEPER*      MOCLDY    69  68  97 CALM      30.19S
ORANGE*        PTCLDY    72  68  88 CALM      30.21S
GORDONSVILLE*  FAIR      70  68  95 CALM      30.18F
WARRENTON*     FAIR      70  67  91 CALM      30.19R

$$

VAZ055>057-300200-
NORTH AND CENTRAL PIEDMONT

CITY           SKY/WX    TMP DP  RH WIND       PRES   REMARKS
FREDERICKSBRG* MOCLDY    72  72 100 CALM      30.18S
STAFFORD*      FOG       68  67  97 CALM      30.23R VSB 1

$$

NCZ024-NYZ072-PAZ021-071-VAZ022-071-300200-
OTHER REGIONAL OBSERVATIONS

CITY           SKY/WX    TMP DP  RH WIND       PRES   REMARKS
NEW YORK CITY  MOCLDY    68  57  68 VRB3      30.26S
PHILADELPHIA   MOCLDY    77  65  66 S6        30.21S
PITTSBURGH     PTCLDY    75  64  68 S6        30.13S
ROANOKE        MOCLDY    72  68  87 NE3       30.22R
RICHMOND       MOCLDY    74  66  76 E3        30.19S
RALEIGH        PTCLDY    71  60  68 CALM      30.18R

$$

ANZ530>537-300200-
MARINE OBSERVATIONS

STATION/POSITION TIME  TEMP    WIND        PRES
                       AIR SEA DIR/SP/G
                 (UTC) (F)     (DEG/KT/KT) (MB)
THOMAS PT LIGHT  0100   74 72  160/ 14/ 15 1022.9R
BALT KEY BRIDGE  0000   76     110/ 11/ 12 1022.1R
COVE POINT       0000   73     190/ 12/ 15 1023.4R
LEWISETTA        0000   75 77              1022.3R
SOLOMONS ISLAND  0000      76                N/A
PINEY POINT      0000          150/ 12/ 13   N/A

$$



USA.gov is the U.S. government's official web portal to all federal, state and local government web resources and services.